Station Historical Data
Daily Summary for June 23, 2017 Units:  English    Metric   Both
« Previous Day
Next Day »
Daily Weekly Monthly Yearly Custom
  High: Low: Average:
Temperature: 94.1 °F 74.9 °F 82.3 °F
Dew Point: 64.7 °F 49.0 °F 58.4 °F
Humidity: 55 % 32 % 45 %
Wind Speed: 15.0 mph 0.0 mph 2.1 mph
Wind Gust: 18.0 mph - -
Wind:- - SE
Pressure: 29.86 in 29.74 in -
Precipitation: 0.00 in    
Historical Graphs
 
 
Tabular Data for June 23, 2017
Time Temperature Dew Point Pressure Wind Wind Speed Wind Gust Humidity Rainfall Rate (Hourly) solar
00:02 78.7 °F 60.7 °F 29.75 in ESE 5.0 mph 11.0 mph 54 % 0.00 in 0.00 W/m2
00:07 78.6 °F 60.6 °F 29.75 in East 2.0 mph 9.0 mph 54 % 0.00 in 0.00 W/m2
00:12 78.6 °F 60.6 °F 29.75 in Calm   11.0 mph 54 % 0.00 in 0.00 W/m2
00:17 78.6 °F 60.6 °F 29.75 in Calm   9.0 mph 54 % 0.00 in 0.00 W/m2
00:22 78.6 °F 60.6 °F 29.75 in Calm   7.0 mph 54 % 0.00 in 0.00 W/m2
00:27 78.6 °F 60.6 °F 29.75 in ESE 8.0 mph 11.0 mph 54 % 0.00 in 0.00 W/m2
00:32 78.5 °F 60.5 °F 29.75 in ESE 2.0 mph 13.0 mph 54 % 0.00 in 0.00 W/m2
00:37 78.5 °F 60.5 °F 29.75 in East 8.0 mph 11.0 mph 54 % 0.00 in 0.00 W/m2
00:42 78.6 °F 60.6 °F 29.75 in East 9.0 mph 11.0 mph 54 % 0.00 in 0.00 W/m2
00:47 78.6 °F 60.6 °F 29.75 in ESE 8.0 mph 13.0 mph 54 % 0.00 in 0.00 W/m2
00:52 78.6 °F 60.6 °F 29.75 in ESE 8.0 mph 12.0 mph 54 % 0.00 in 0.00 W/m2
00:57 78.6 °F 60.6 °F 29.75 in East 5.0 mph 12.0 mph 54 % 0.00 in 0.00 W/m2
00:59 78.6 °F 60.6 °F 29.75 in East 7.0 mph 13.0 mph 54 % 0.00 in 0.00 W/m2
01:04 78.6 °F 60.6 °F 29.75 in East 5.0 mph 14.0 mph 54 % 0.00 in 0.00 W/m2
01:09 78.6 °F 61.1 °F 29.75 in East 2.0 mph 12.0 mph 55 % 0.00 in 0.00 W/m2
01:14 78.5 °F 61.0 °F 29.75 in ESE 6.0 mph 14.0 mph 55 % 0.00 in 0.00 W/m2
01:19 78.5 °F 61.0 °F 29.75 in ESE 11.0 mph 14.0 mph 55 % 0.00 in 0.00 W/m2
01:24 78.4 °F 60.4 °F 29.75 in East 4.0 mph 13.0 mph 54 % 0.00 in 0.00 W/m2
01:29 78.4 °F 60.9 °F 29.75 in East 6.0 mph 9.0 mph 55 % 0.00 in 0.00 W/m2
01:34 78.3 °F 60.8 °F 29.74 in East 1.0 mph 11.0 mph 55 % 0.00 in 0.00 W/m2
01:39 78.2 °F 60.7 °F 29.74 in Calm   8.0 mph 55 % 0.00 in 0.00 W/m2
01:44 78.2 °F 60.7 °F 29.74 in Calm   7.0 mph 55 % 0.00 in 0.00 W/m2
01:49 78.1 °F 60.6 °F 29.75 in Calm   9.0 mph 55 % 0.00 in 0.00 W/m2
01:54 78.0 °F 60.5 °F 29.74 in East 2.0 mph 7.0 mph 55 % 0.00 in 0.00 W/m2
01:55 78.0 °F 60.5 °F 29.75 in East 7.0 mph 7.0 mph 55 % 0.00 in 0.00 W/m2
02:00 77.8 °F 60.4 °F 29.75 in East 6.0 mph 8.0 mph 55 % 0.00 in 0.00 W/m2
02:01 77.8 °F 60.4 °F 29.75 in Calm   1.0 mph 55 % 0.00 in 0.00 W/m2
02:06 77.7 °F 60.3 °F 29.75 in ESE 5.0 mph 8.0 mph 55 % 0.00 in 0.00 W/m2
02:11 77.5 °F 60.1 °F 29.74 in ESE 1.0 mph 8.0 mph 55 % 0.00 in 0.00 W/m2
02:16 77.5 °F 59.6 °F 29.74 in ESE 4.0 mph 7.0 mph 54 % 0.00 in 0.00 W/m2
02:22 77.4 °F 59.5 °F 29.75 in Calm   8.0 mph 54 % 0.00 in 0.00 W/m2
02:27 77.3 °F 59.4 °F 29.75 in ESE 7.0 mph 8.0 mph 54 % 0.00 in 0.00 W/m2
02:32 77.2 °F 59.3 °F 29.75 in ESE 5.0 mph 5.0 mph 54 % 0.00 in 0.00 W/m2
02:37 77.1 °F 59.2 °F 29.75 in ESE 1.0 mph 7.0 mph 54 % 0.00 in 0.00 W/m2
02:42 77.1 °F 58.7 °F 29.75 in ESE 1.0 mph 4.0 mph 53 % 0.00 in 0.00 W/m2
02:47 77.0 °F 58.6 °F 29.74 in ESE 4.0 mph 6.0 mph 53 % 0.00 in 0.00 W/m2
02:52 76.9 °F 58.5 °F 29.74 in ESE 6.0 mph 8.0 mph 53 % 0.00 in 0.00 W/m2
02:57 76.9 °F 58.0 °F 29.74 in ESE 4.0 mph 6.0 mph 52 % 0.00 in 0.00 W/m2
03:02 76.8 °F 58.4 °F 29.74 in ESE 1.0 mph 6.0 mph 53 % 0.00 in 0.00 W/m2
03:07 76.7 °F 58.3 °F 29.74 in ESE 4.0 mph 6.0 mph 53 % 0.00 in 0.00 W/m2
03:12 76.6 °F 57.7 °F 29.74 in Calm   6.0 mph 52 % 0.00 in 0.00 W/m2
03:17 76.6 °F 57.7 °F 29.74 in Calm   7.0 mph 52 % 0.00 in 0.00 W/m2
03:22 76.6 °F 58.2 °F 29.74 in Calm   7.0 mph 53 % 0.00 in 0.00 W/m2
03:27 76.5 °F 58.6 °F 29.74 in Calm   8.0 mph 54 % 0.00 in 0.00 W/m2
03:32 76.4 °F 58.0 °F 29.74 in East 15.0 mph 15.0 mph 53 % 0.00 in 0.00 W/m2
03:37 76.3 °F 56.9 °F 29.74 in ESE 6.0 mph 7.0 mph 51 % 0.00 in 0.00 W/m2
03:42 76.2 °F 56.8 °F 29.74 in ESE 4.0 mph 8.0 mph 51 % 0.00 in 0.00 W/m2
03:47 76.2 °F 56.8 °F 29.74 in ESE 5.0 mph 12.0 mph 51 % 0.00 in 0.00 W/m2
03:52 76.1 °F 56.1 °F 29.74 in Calm   9.0 mph 50 % 0.00 in 0.00 W/m2
03:57 76.0 °F 56.6 °F 29.74 in East 10.0 mph 10.0 mph 51 % 0.00 in 0.00 W/m2
04:02 75.9 °F 56.0 °F 29.74 in Calm   10.0 mph 50 % 0.00 in 0.00 W/m2
04:07 75.9 °F 55.4 °F 29.74 in East 6.0 mph 9.0 mph 49 % 0.00 in 0.00 W/m2
04:12 75.8 °F 55.3 °F 29.74 in ESE 4.0 mph 8.0 mph 49 % 0.00 in 0.00 W/m2
04:17 75.8 °F 54.7 °F 29.75 in Calm   8.0 mph 48 % 0.00 in 0.00 W/m2
04:22 75.7 °F 54.6 °F 29.75 in ESE 2.0 mph 8.0 mph 48 % 0.00 in 0.00 W/m2
04:27 75.7 °F 54.1 °F 29.75 in ESE 4.0 mph 12.0 mph 47 % 0.00 in 0.00 W/m2
04:32 75.7 °F 54.1 °F 29.75 in East 4.0 mph 8.0 mph 47 % 0.00 in 0.00 W/m2
04:37 75.6 °F 52.8 °F 29.75 in ESE 4.0 mph 12.0 mph 45 % 0.00 in 0.00 W/m2
04:42 75.5 °F 53.3 °F 29.75 in East 7.0 mph 9.0 mph 46 % 0.00 in 0.00 W/m2
04:47 75.5 °F 53.3 °F 29.75 in ESE 2.0 mph 9.0 mph 46 % 0.00 in 0.00 W/m2
04:52 75.4 °F 52.6 °F 29.75 in East 2.0 mph 8.0 mph 45 % 0.00 in 0.00 W/m2
04:57 75.4 °F 52.6 °F 29.75 in Calm   10.0 mph 45 % 0.00 in 0.00 W/m2
05:02 75.3 °F 51.9 °F 29.75 in East 5.0 mph 11.0 mph 44 % 0.00 in 0.00 W/m2
05:07 75.3 °F 51.9 °F 29.75 in East 6.0 mph 12.0 mph 44 % 0.00 in 0.00 W/m2
05:12 75.3 °F 51.9 °F 29.76 in ESE 1.0 mph 9.0 mph 44 % 0.00 in 0.00 W/m2
05:17 75.3 °F 50.7 °F 29.76 in East 5.0 mph 11.0 mph 42 % 0.00 in 0.00 W/m2
05:22 75.2 °F 51.2 °F 29.76 in Calm   13.0 mph 43 % 0.00 in 0.00 W/m2
05:27 75.3 °F 51.3 °F 29.76 in East 5.0 mph 9.0 mph 43 % 0.00 in 0.00 W/m2
05:32 75.2 °F 51.2 °F 29.76 in East 7.0 mph 8.0 mph 43 % 0.00 in 0.00 W/m2
05:37 75.1 °F 51.1 °F 29.76 in East 1.0 mph 9.0 mph 43 % 0.00 in 5.00 W/m2
05:42 75.1 °F 50.5 °F 29.77 in East 8.0 mph 11.0 mph 42 % 0.00 in 7.00 W/m2
05:47 75.0 °F 51.0 °F 29.77 in Calm   7.0 mph 43 % 0.00 in 9.00 W/m2
05:52 75.0 °F 50.4 °F 29.77 in Calm   12.0 mph 42 % 0.00 in 12.00 W/m2
05:57 75.0 °F 49.7 °F 29.77 in East 8.0 mph 9.0 mph 41 % 0.00 in 14.00 W/m2
06:02 74.9 °F 49.6 °F 29.77 in East 8.0 mph 15.0 mph 41 % 0.00 in 18.00 W/m2
06:07 74.9 °F 49.6 °F 29.77 in ESE 8.0 mph 13.0 mph 41 % 0.00 in 19.00 W/m2
06:12 74.9 °F 50.3 °F 29.77 in ESE 6.0 mph 13.0 mph 42 % 0.00 in 23.00 W/m2
06:17 74.9 °F 49.0 °F 29.78 in East 9.0 mph 9.0 mph 40 % 0.00 in 33.00 W/m2
06:23 74.9 °F 49.6 °F 29.78 in East 13.0 mph 13.0 mph 41 % 0.00 in 46.00 W/m2
06:28 74.9 °F 49.0 °F 29.78 in ESE 5.0 mph 9.0 mph 40 % 0.00 in 56.00 W/m2
06:33 75.0 °F 49.1 °F 29.78 in SE 7.0 mph 11.0 mph 40 % 0.00 in 69.00 W/m2
06:38 75.0 °F 49.7 °F 29.78 in ESE 2.0 mph 14.0 mph 41 % 0.00 in 83.00 W/m2
06:43 75.1 °F 49.8 °F 29.78 in East 5.0 mph 13.0 mph 41 % 0.00 in 97.00 W/m2
06:48 75.1 °F 49.2 °F 29.78 in Calm   12.0 mph 40 % 0.00 in 114.00 W/m2
06:53 75.1 °F 49.8 °F 29.78 in ESE 6.0 mph 13.0 mph 41 % 0.00 in 127.00 W/m2
06:58 75.1 °F 50.5 °F 29.78 in ESE 2.0 mph 14.0 mph 42 % 0.00 in 149.00 W/m2
07:03 75.1 °F 50.5 °F 29.79 in ESE 2.0 mph 11.0 mph 42 % 0.00 in 167.00 W/m2
07:08 75.0 °F 51.0 °F 29.79 in East 9.0 mph 14.0 mph 43 % 0.00 in 179.00 W/m2
07:13 75.0 °F 50.4 °F 29.79 in ESE 5.0 mph 18.0 mph 42 % 0.00 in 199.00 W/m2
07:18 74.9 °F 49.6 °F 29.79 in ESE 1.0 mph 10.0 mph 41 % 0.00 in 225.00 W/m2
07:23 74.9 °F 49.6 °F 29.80 in East 7.0 mph 15.0 mph 41 % 0.00 in 243.00 W/m2
07:28 75.0 °F 49.7 °F 29.80 in Calm   12.0 mph 41 % 0.00 in 262.00 W/m2
07:33 75.1 °F 50.5 °F 29.80 in ESE 7.0 mph 16.0 mph 42 % 0.00 in 278.00 W/m2
07:38 75.2 °F 49.9 °F 29.80 in ESE 9.0 mph 16.0 mph 41 % 0.00 in 288.00 W/m2
07:43 75.3 °F 50.7 °F 29.80 in East 8.0 mph 16.0 mph 42 % 0.00 in 311.00 W/m2
07:48 75.5 °F 52.1 °F 29.80 in East 6.0 mph 16.0 mph 44 % 0.00 in 320.00 W/m2
07:53 75.5 °F 51.5 °F 29.80 in East 3.0 mph 14.0 mph 43 % 0.00 in 336.00 W/m2
07:58 75.6 °F 52.2 °F 29.81 in ESE 1.0 mph 10.0 mph 44 % 0.00 in 355.00 W/m2
08:03 75.7 °F 51.6 °F 29.81 in Calm   12.0 mph 43 % 0.00 in 371.00 W/m2
08:08 75.9 °F 51.8 °F 29.81 in East 6.0 mph 13.0 mph 43 % 0.00 in 387.00 W/m2
08:13 76.1 °F 53.2 °F 29.81 in ESE 8.0 mph 13.0 mph 45 % 0.00 in 401.00 W/m2
08:18 76.3 °F 52.8 °F 29.81 in East 8.0 mph 13.0 mph 44 % 0.00 in 413.00 W/m2
08:23 76.5 °F 53.0 °F 29.81 in Calm   9.0 mph 44 % 0.00 in 431.00 W/m2
08:28 76.6 °F 52.5 °F 29.81 in ESE 9.0 mph 13.0 mph 43 % 0.00 in 446.00 W/m2
08:33 76.9 °F 53.3 °F 29.81 in ESE 5.0 mph 11.0 mph 44 % 0.00 in 462.00 W/m2
08:38 77.1 °F 54.2 °F 29.81 in ESE 2.0 mph 12.0 mph 45 % 0.00 in 476.00 W/m2
08:43 77.3 °F 53.7 °F 29.81 in Calm   9.0 mph 44 % 0.00 in 492.00 W/m2
08:44 77.3 °F 53.7 °F 29.81 in ESE 4.0 mph 11.0 mph 44 % 0.00 in 492.00 W/m2
08:49 77.6 °F 54.6 °F 29.81 in Calm   9.0 mph 45 % 0.00 in 510.00 W/m2
08:54 77.9 °F 54.9 °F 29.81 in ESE 1.0 mph 9.0 mph 45 % 0.00 in 522.00 W/m2
08:59 78.2 °F 55.8 °F 29.81 in Calm   9.0 mph 46 % 0.00 in 540.00 W/m2
09:04 78.4 °F 55.3 °F 29.81 in Calm   9.0 mph 45 % 0.00 in 555.00 W/m2
09:09 78.7 °F 56.2 °F 29.81 in Calm   4.0 mph 46 % 0.00 in 570.00 W/m2
09:14 78.9 °F 57.0 °F 29.81 in Calm   9.0 mph 47 % 0.00 in 584.00 W/m2
09:19 79.2 °F 57.2 °F 29.81 in Calm   8.0 mph 47 % 0.00 in 598.00 W/m2
09:24 79.6 °F 58.2 °F 29.81 in Calm   6.0 mph 48 % 0.00 in 612.00 W/m2
09:30 80.0 °F 58.6 °F 29.81 in Calm   7.0 mph 48 % 0.00 in 626.00 W/m2
09:34 80.4 °F 59.5 °F 29.81 in Calm   4.0 mph 49 % 0.00 in 640.00 W/m2
09:39 80.8 °F 60.4 °F 29.81 in Calm   4.0 mph 50 % 0.00 in 652.00 W/m2
09:45 81.1 °F 60.7 °F 29.81 in Calm   5.0 mph 50 % 0.00 in 664.00 W/m2
09:48 81.2 °F 60.2 °F 29.81 in Calm     49 % 0.00 in 673.00 W/m2
09:53 81.5 °F 59.9 °F 29.81 in Calm     48 % 0.00 in 687.00 W/m2
09:58 81.7 °F 60.1 °F 29.81 in Calm     48 % 0.00 in 700.00 W/m2
10:03 82.0 °F 61.0 °F 29.81 in Calm     49 % 0.00 in 712.00 W/m2
10:05 82.1 °F 59.9 °F 29.81 in Calm     47 % 0.00 in 715.00 W/m2
10:10 82.4 °F 59.6 °F 29.81 in Calm   5.0 mph 46 % 0.00 in 728.00 W/m2
10:15 82.8 °F 59.3 °F 29.81 in Calm   5.0 mph 45 % 0.00 in 735.00 W/m2
10:20 83.2 °F 57.1 °F 29.81 in Calm   5.0 mph 41 % 0.00 in 745.00 W/m2
10:25 83.6 °F 58.8 °F 29.82 in Calm   5.0 mph 43 % 0.00 in 756.00 W/m2
10:30 83.9 °F 57.7 °F 29.82 in Calm   4.0 mph 41 % 0.00 in 765.00 W/m2
10:35 84.5 °F 57.5 °F 29.82 in Calm   4.0 mph 40 % 0.00 in 775.00 W/m2
10:40 85.1 °F 58.8 °F 29.82 in Calm   3.0 mph 41 % 0.00 in 786.00 W/m2
10:45 85.6 °F 59.2 °F 29.82 in Calm   4.0 mph 41 % 0.00 in 796.00 W/m2
10:50 85.9 °F 60.2 °F 29.82 in SSW 3.0 mph 6.0 mph 42 % 0.00 in 807.00 W/m2
10:55 86.2 °F 61.1 °F 29.82 in Calm   7.0 mph 43 % 0.00 in 816.00 W/m2
11:00 86.5 °F 60.7 °F 29.82 in Calm   4.0 mph 42 % 0.00 in 823.00 W/m2
11:01 86.6 °F 60.8 °F 29.82 in SSW 3.0 mph 5.0 mph 42 % 0.00 in 824.00 W/m2
11:06 86.8 °F 61.6 °F 29.82 in SW 4.0 mph 6.0 mph 43 % 0.00 in 833.00 W/m2
11:11 86.9 °F 61.7 °F 29.82 in South 4.0 mph 5.0 mph 43 % 0.00 in 842.00 W/m2
11:16 87.0 °F 62.5 °F 29.82 in South 1.0 mph 3.0 mph 44 % 0.00 in 849.00 W/m2
11:21 87.1 °F 61.9 °F 29.82 in Calm   1.0 mph 43 % 0.00 in 854.00 W/m2
11:26 87.4 °F 63.5 °F 29.82 in Calm     45 % 0.00 in 863.00 W/m2
11:31 87.6 °F 62.4 °F 29.82 in Calm     43 % 0.00 in 867.00 W/m2
11:36 87.7 °F 63.1 °F 29.82 in SW 3.0 mph 3.0 mph 44 % 0.00 in 875.00 W/m2
11:41 87.9 °F 62.6 °F 29.82 in Calm     43 % 0.00 in 884.00 W/m2
11:46 88.0 °F 61.4 °F 29.82 in West 1.0 mph 4.0 mph 41 % 0.00 in 891.00 W/m2
11:51 88.0 °F 60.0 °F 29.82 in Calm     39 % 0.00 in 898.00 W/m2
11:52 88.1 °F 60.8 °F 29.82 in Calm     40 % 0.00 in 898.00 W/m2
11:57 88.2 °F 61.5 °F 29.82 in Calm     41 % 0.00 in 902.00 W/m2
12:02 88.3 °F 61.6 °F 29.82 in Calm     41 % 0.00 in 907.00 W/m2
12:07 88.4 °F 60.3 °F 29.83 in SW 6.0 mph 8.0 mph 39 % 0.00 in 912.00 W/m2
12:12 88.7 °F 59.1 °F 29.83 in Calm     37 % 0.00 in 916.00 W/m2
12:17 89.1 °F 59.5 °F 29.83 in Calm     37 % 0.00 in 921.00 W/m2
12:22 89.3 °F 60.4 °F 29.83 in SW 5.0 mph 5.0 mph 38 % 0.00 in 923.00 W/m2
12:27 89.5 °F 60.6 °F 29.83 in Calm   7.0 mph 38 % 0.00 in 926.00 W/m2
12:32 89.8 °F 59.3 °F 29.83 in SW 3.0 mph 4.0 mph 36 % 0.00 in 928.00 W/m2
12:37 90.3 °F 60.5 °F 29.83 in SW 1.0 mph 1.0 mph 37 % 0.00 in 930.00 W/m2
12:42 90.6 °F 61.5 °F 29.83 in Calm   1.0 mph 38 % 0.00 in 932.00 W/m2
12:47 90.6 °F 60.0 °F 29.83 in Calm   5.0 mph 36 % 0.00 in 933.00 W/m2
12:52 90.6 °F 61.5 °F 29.83 in WSW 2.0 mph 4.0 mph 38 % 0.00 in 930.00 W/m2
12:57 90.8 °F 63.2 °F 29.83 in WSW 3.0 mph 6.0 mph 40 % 0.00 in 932.00 W/m2
13:02 90.8 °F 63.2 °F 29.83 in Calm   5.0 mph 40 % 0.00 in 932.00 W/m2
13:07 91.0 °F 64.7 °F 29.83 in WSW 2.0 mph 8.0 mph 42 % 0.00 in 930.00 W/m2
13:12 90.9 °F 62.5 °F 29.83 in Calm   4.0 mph 39 % 0.00 in 928.00 W/m2
13:17 90.9 °F 64.0 °F 29.83 in Calm   5.0 mph 41 % 0.00 in 926.00 W/m2
13:22 91.0 °F 64.1 °F 29.83 in WSW 5.0 mph 7.0 mph 41 % 0.00 in 925.00 W/m2
13:27 91.2 °F 63.5 °F 29.83 in SW 1.0 mph 6.0 mph 40 % 0.00 in 925.00 W/m2
13:32 91.7 °F 62.5 °F 29.83 in SW 1.0 mph 9.0 mph 38 % 0.00 in 925.00 W/m2
13:37 92.3 °F 63.8 °F 29.83 in SSW 2.0 mph 5.0 mph 39 % 0.00 in 919.00 W/m2
13:42 92.8 °F 64.2 °F 29.83 in Calm   9.0 mph 39 % 0.00 in 916.00 W/m2
13:47 93.1 °F 63.8 °F 29.83 in SSW 8.0 mph 9.0 mph 38 % 0.00 in 916.00 W/m2
13:52 93.5 °F 62.6 °F 29.83 in Calm   4.0 mph 36 % 0.00 in 912.00 W/m2
13:57 93.5 °F 64.1 °F 29.83 in Calm   9.0 mph 38 % 0.00 in 904.00 W/m2
14:02 93.7 °F 64.3 °F 29.83 in SW 7.0 mph 9.0 mph 38 % 0.00 in 896.00 W/m2
14:07 94.0 °F 63.0 °F 29.83 in WSW 4.0 mph 7.0 mph 36 % 0.00 in 896.00 W/m2
14:12 94.0 °F 63.0 °F 29.83 in Calm   4.0 mph 36 % 0.00 in 893.00 W/m2
14:15 93.9 °F 62.1 °F 29.83 in SSW 3.0 mph 12.0 mph 35 % 0.00 in 891.00 W/m2
14:20 93.9 °F 62.1 °F 29.83 in SSW 10.0 mph 11.0 mph 35 % 0.00 in 886.00 W/m2
14:25 94.1 °F 62.3 °F 29.83 in SW 1.0 mph 12.0 mph 35 % 0.00 in 881.00 W/m2
14:30 94.0 °F 61.4 °F 29.83 in Calm   8.0 mph 34 % 0.00 in 874.00 W/m2
14:35 93.4 °F 60.0 °F 29.83 in Calm   1.0 mph 33 % 0.00 in 868.00 W/m2
14:40 92.8 °F 62.7 °F 29.83 in Calm     37 % 0.00 in 861.00 W/m2
14:45 92.4 °F 61.6 °F 29.83 in WSW 5.0 mph 6.0 mph 36 % 0.00 in 854.00 W/m2
14:50 92.4 °F 60.0 °F 29.83 in SW 2.0 mph 9.0 mph 34 % 0.00 in 846.00 W/m2
14:55 92.5 °F 60.9 °F 29.83 in Calm   1.0 mph 35 % 0.00 in 840.00 W/m2
15:00 92.3 °F 60.7 °F 29.83 in Calm   6.0 mph 35 % 0.00 in 833.00 W/m2
15:05 91.8 °F 61.8 °F 29.83 in Calm   2.0 mph 37 % 0.00 in 824.00 W/m2
15:10 91.7 °F 60.2 °F 29.83 in Calm   6.0 mph 35 % 0.00 in 819.00 W/m2
15:15 91.5 °F 59.2 °F 29.83 in Calm   6.0 mph 34 % 0.00 in 809.00 W/m2
15:20 91.4 °F 59.9 °F 29.83 in Calm   4.0 mph 35 % 0.00 in 802.00 W/m2
15:23 91.4 °F 60.7 °F 29.83 in Calm     36 % 0.00 in 796.00 W/m2
15:28 91.4 °F 59.9 °F 29.83 in SW 5.0 mph 5.0 mph 35 % 0.00 in 784.00 W/m2
15:33 91.5 °F 60.8 °F 29.83 in Calm   6.0 mph 36 % 0.00 in 773.00 W/m2
15:38 91.4 °F 60.7 °F 29.83 in Calm     36 % 0.00 in 763.00 W/m2
15:43 91.2 °F 61.3 °F 29.83 in WSW 1.0 mph 6.0 mph 37 % 0.00 in 752.00 W/m2
15:48 91.1 °F 59.7 °F 29.83 in Calm     35 % 0.00 in 742.00 W/m2
15:53 91.1 °F 61.2 °F 29.83 in SSW 1.0 mph 9.0 mph 37 % 0.00 in 728.00 W/m2
15:58 91.1 °F 59.7 °F 29.83 in Calm   9.0 mph 35 % 0.00 in 717.00 W/m2
16:03 91.2 °F 59.8 °F 29.83 in Calm     35 % 0.00 in 705.00 W/m2
16:08 91.3 °F 58.2 °F 29.83 in SW 2.0 mph 2.0 mph 33 % 0.00 in 693.00 W/m2
16:13 91.4 °F 59.1 °F 29.83 in Calm   3.0 mph 34 % 0.00 in 680.00 W/m2
16:18 91.5 °F 59.2 °F 29.83 in Calm   1.0 mph 34 % 0.00 in 670.00 W/m2
16:23 91.5 °F 57.5 °F 29.83 in Calm   4.0 mph 32 % 0.00 in 656.00 W/m2
16:28 91.4 °F 59.1 °F 29.83 in Calm   7.0 mph 34 % 0.00 in 645.00 W/m2
16:33 91.3 °F 59.8 °F 29.83 in Calm     35 % 0.00 in 629.00 W/m2
16:38 91.3 °F 58.2 °F 29.83 in Calm     33 % 0.00 in 615.00 W/m2
16:43 91.3 °F 57.3 °F 29.83 in Calm   2.0 mph 32 % 0.00 in 601.00 W/m2
16:48 91.3 °F 59.0 °F 29.83 in Calm   7.0 mph 34 % 0.00 in 589.00 W/m2
16:53 91.2 °F 59.8 °F 29.83 in Calm   3.0 mph 35 % 0.00 in 575.00 W/m2
16:58 91.1 °F 58.8 °F 29.83 in Calm   3.0 mph 34 % 0.00 in 561.00 W/m2
17:03 91.0 °F 58.8 °F 29.83 in Calm   2.0 mph 34 % 0.00 in 548.00 W/m2
17:08 90.9 °F 58.7 °F 29.83 in Calm   3.0 mph 34 % 0.00 in 536.00 W/m2
17:13 90.8 °F 58.6 °F 29.83 in Calm     34 % 0.00 in 520.00 W/m2
17:18 90.8 °F 59.4 °F 29.83 in Calm     35 % 0.00 in 506.00 W/m2
17:23 90.7 °F 59.3 °F 29.83 in Calm   1.0 mph 35 % 0.00 in 492.00 W/m2
17:28 90.6 °F 60.0 °F 29.83 in Calm   1.0 mph 36 % 0.00 in 478.00 W/m2
17:33 90.5 °F 59.9 °F 29.83 in Calm   3.0 mph 36 % 0.00 in 464.00 W/m2
17:38 90.3 °F 59.8 °F 29.83 in Calm   2.0 mph 36 % 0.00 in 446.00 W/m2
17:43 90.3 °F 59.0 °F 29.83 in Calm   6.0 mph 35 % 0.00 in 434.00 W/m2
17:48 90.2 °F 60.4 °F 29.83 in Calm   3.0 mph 37 % 0.00 in 415.00 W/m2
17:53 90.1 °F 59.6 °F 29.83 in Calm   5.0 mph 36 % 0.00 in 399.00 W/m2
17:58 90.0 °F 59.5 °F 29.83 in Calm   1.0 mph 36 % 0.00 in 385.00 W/m2
18:03 90.0 °F 60.3 °F 29.83 in Calm   5.0 mph 37 % 0.00 in 369.00 W/m2
18:08 89.9 °F 60.9 °F 29.83 in Calm   4.0 mph 38 % 0.00 in 353.00 W/m2
18:13 89.7 °F 61.5 °F 29.83 in Calm     39 % 0.00 in 341.00 W/m2
18:18 89.5 °F 60.6 °F 29.83 in Calm     38 % 0.00 in 325.00 W/m2
18:23 89.3 °F 60.4 °F 29.83 in Calm   1.0 mph 38 % 0.00 in 309.00 W/m2
18:28 89.0 °F 61.6 °F 29.83 in Calm   1.0 mph 40 % 0.00 in 294.00 W/m2
18:33 88.7 °F 62.0 °F 29.83 in Calm     41 % 0.00 in 278.00 W/m2
18:38 88.4 °F 61.0 °F 29.83 in Calm     40 % 0.00 in 262.00 W/m2
18:44 88.0 °F 61.4 °F 29.83 in Calm     41 % 0.00 in 246.00 W/m2
18:49 87.6 °F 61.7 °F 29.83 in Calm     42 % 0.00 in 230.00 W/m2
18:54 87.2 °F 62.0 °F 29.83 in Calm     43 % 0.00 in 218.00 W/m2
18:59 86.8 °F 62.9 °F 29.83 in Calm     45 % 0.00 in 202.00 W/m2
19:04 86.3 °F 63.1 °F 29.83 in Calm     46 % 0.00 in 188.00 W/m2
19:09 85.9 °F 63.3 °F 29.83 in Calm     47 % 0.00 in 172.00 W/m2
19:14 85.5 °F 63.0 °F 29.83 in Calm     47 % 0.00 in 153.00 W/m2
19:19 85.1 °F 62.6 °F 29.83 in Calm     47 % 0.00 in 135.00 W/m2
19:24 84.6 °F 62.2 °F 29.83 in Calm     47 % 0.00 in 118.00 W/m2
19:29 84.2 °F 61.8 °F 29.83 in Calm     47 % 0.00 in 100.00 W/m2
19:34 83.9 °F 62.1 °F 29.83 in Calm     48 % 0.00 in 84.00 W/m2
19:39 83.5 °F 61.2 °F 29.83 in Calm     47 % 0.00 in 72.00 W/m2
19:44 83.2 °F 61.5 °F 29.83 in Calm     48 % 0.00 in 58.00 W/m2
19:49 82.8 °F 61.1 °F 29.83 in Calm     48 % 0.00 in 47.00 W/m2
19:54 82.3 °F 60.7 °F 29.83 in Calm     48 % 0.00 in 35.00 W/m2
19:59 82.0 °F 60.4 °F 29.83 in Calm     48 % 0.00 in 26.00 W/m2
20:04 81.6 °F 60.0 °F 29.83 in Calm     48 % 0.00 in 21.00 W/m2
20:09 81.3 °F 59.8 °F 29.83 in Calm     48 % 0.00 in 16.00 W/m2
20:14 81.1 °F 60.2 °F 29.84 in Calm     49 % 0.00 in 14.00 W/m2
20:19 80.9 °F 60.0 °F 29.84 in Calm     49 % 0.00 in 12.00 W/m2
20:24 80.6 °F 59.7 °F 29.84 in Calm     49 % 0.00 in 9.00 W/m2
20:29 80.3 °F 58.8 °F 29.84 in Calm     48 % 0.00 in 7.00 W/m2
20:34 80.1 °F 58.7 °F 29.84 in Calm     48 % 0.00 in 5.00 W/m2
20:39 79.9 °F 58.5 °F 29.84 in Calm     48 % 0.00 in 0.00 W/m2
20:44 79.7 °F 58.3 °F 29.84 in Calm     48 % 0.00 in 0.00 W/m2
20:49 79.6 °F 58.2 °F 29.84 in Calm     48 % 0.00 in 0.00 W/m2
20:54 79.5 °F 58.7 °F 29.84 in Calm     49 % 0.00 in 0.00 W/m2
20:59 79.3 °F 59.1 °F 29.84 in Calm     50 % 0.00 in 0.00 W/m2
21:04 79.1 °F 58.9 °F 29.84 in Calm     50 % 0.00 in 0.00 W/m2
21:09 79.0 °F 58.8 °F 29.85 in Calm     50 % 0.00 in 0.00 W/m2
21:14 78.9 °F 58.7 °F 29.85 in Calm     50 % 0.00 in 0.00 W/m2
21:19 78.8 °F 58.6 °F 29.85 in Calm     50 % 0.00 in 0.00 W/m2
21:24 78.8 °F 58.6 °F 29.85 in Calm     50 % 0.00 in 0.00 W/m2
21:29 78.8 °F 58.6 °F 29.85 in Calm     50 % 0.00 in 0.00 W/m2
21:34 78.8 °F 58.6 °F 29.85 in Calm   1.0 mph 50 % 0.00 in 0.00 W/m2
21:39 78.7 °F 58.5 °F 29.85 in Calm     50 % 0.00 in 0.00 W/m2
21:44 78.7 °F 58.0 °F 29.85 in Calm   4.0 mph 49 % 0.00 in 0.00 W/m2
21:49 78.6 °F 57.9 °F 29.85 in Calm   5.0 mph 49 % 0.00 in 0.00 W/m2
21:54 78.5 °F 57.8 °F 29.85 in South 2.0 mph 4.0 mph 49 % 0.00 in 0.00 W/m2
21:59 78.4 °F 58.2 °F 29.85 in SSE 5.0 mph 6.0 mph 50 % 0.00 in 0.00 W/m2
22:00 78.4 °F 58.2 °F 29.85 in Calm   6.0 mph 50 % 0.00 in 0.00 W/m2
22:05 78.4 °F 58.2 °F 29.85 in SE 2.0 mph 8.0 mph 50 % 0.00 in 0.00 W/m2
22:10 78.3 °F 58.2 °F 29.85 in Calm   8.0 mph 50 % 0.00 in 0.00 W/m2
22:15 78.3 °F 58.2 °F 29.86 in SE 1.0 mph 7.0 mph 50 % 0.00 in 0.00 W/m2
22:20 78.3 °F 58.7 °F 29.86 in Calm   8.0 mph 51 % 0.00 in 0.00 W/m2
22:25 78.2 °F 58.6 °F 29.86 in ESE 4.0 mph 7.0 mph 51 % 0.00 in 0.00 W/m2
22:30 78.2 °F 58.6 °F 29.86 in ESE 4.0 mph 7.0 mph 51 % 0.00 in 0.00 W/m2
22:35 78.2 °F 58.6 °F 29.86 in ESE 4.0 mph 7.0 mph 51 % 0.00 in 0.00 W/m2
22:40 78.2 °F 58.6 °F 29.86 in ESE 2.0 mph 7.0 mph 51 % 0.00 in 0.00 W/m2
22:45 78.1 °F 59.1 °F 29.86 in ESE 4.0 mph 9.0 mph 52 % 0.00 in 0.00 W/m2
22:50 78.1 °F 59.1 °F 29.86 in ESE 7.0 mph 11.0 mph 52 % 0.00 in 0.00 W/m2
22:55 78.0 °F 59.0 °F 29.86 in ESE 8.0 mph 8.0 mph 52 % 0.00 in 0.00 W/m2
23:00 78.0 °F 59.0 °F 29.86 in Calm   8.0 mph 52 % 0.00 in 0.00 W/m2
23:05 77.9 °F 58.9 °F 29.86 in East 2.0 mph 8.0 mph 52 % 0.00 in 0.00 W/m2
23:10 77.8 °F 59.3 °F 29.86 in Calm   6.0 mph 53 % 0.00 in 0.00 W/m2
23:15 77.8 °F 59.3 °F 29.86 in East 4.0 mph 8.0 mph 53 % 0.00 in 0.00 W/m2
23:20 77.7 °F 59.2 °F 29.85 in East 5.0 mph 9.0 mph 53 % 0.00 in 0.00 W/m2
23:21 77.7 °F 59.2 °F 29.85 in ESE 5.0 mph 8.0 mph 53 % 0.00 in 0.00 W/m2
23:26 77.6 °F 59.1 °F 29.85 in East 7.0 mph 7.0 mph 53 % 0.00 in 0.00 W/m2
23:31 77.6 °F 59.1 °F 29.85 in ESE 1.0 mph 5.0 mph 53 % 0.00 in 0.00 W/m2
23:36 77.5 °F 59.0 °F 29.85 in Calm   7.0 mph 53 % 0.00 in 0.00 W/m2
23:41 77.4 °F 59.0 °F 29.85 in Calm   6.0 mph 53 % 0.00 in 0.00 W/m2
23:46 77.4 °F 59.0 °F 29.85 in Calm   6.0 mph 53 % 0.00 in 0.00 W/m2
23:51 77.3 °F 58.8 °F 29.85 in ESE 2.0 mph 6.0 mph 53 % 0.00 in 0.00 W/m2
23:56 77.3 °F 58.8 °F 29.85 in Calm   9.0 mph 53 % 0.00 in 0.00 W/m2
Juneau County Weather
Compliments of Weather Underground - 4.5 mb
 WU-history PHP script courtesy of   Juneau County Weather.
powered by Cumulus v1.9.3 (1059)
Ambient Weather VWS v14.00
Top Contact Website Map Copyright © 2007 - 2018 Foresthillweather.com Never base important decisions on this or any weather information obtained from the Internet